�N����,����,�~����,�C��,���x,�C��,����,���ϕ���,�ő�u�ԕ���,�ő厞����,���˗�,�I�_���x,�n�����x,�ő啗���N��,DTYPE
"20/06/13","00:10",0.0,22.3,95.1,1001.7,270.4,1.0,1.6,335.5,0.00,21.5,23.3,"00:09:44",1
"20/06/13","00:20",0.0,22.3,95.2,1002.2,331.1,1.7,2.7,338.5,0.00,21.5,23.4,"00:14:56",1
"20/06/13","00:30",0.0,22.4,95.2,1001.7,288.4,0.7,1.0,298.7,0.00,21.6,23.3,"00:20:08",1
"20/06/13","00:40",0.0,22.2,95.2,1001.7,280.6,0.8,1.2,313.5,0.00,21.4,23.3,"00:30:02",1
"20/06/13","00:50",0.0,22.2,95.3,1001.7,302.7,1.0,1.3,320.5,0.00,21.5,23.3,"00:40:24",1
"20/06/13","01:00",0.0,22.1,95.4,1001.7,275.6,0.8,1.1,266.8,0.00,21.4,23.1,"00:51:04",1
"20/06/13","01:10",0.0,22.0,95.4,1001.7,294.1,0.7,1.2,271.6,0.00,21.3,23.1,"01:00:16",1
"20/06/13","01:20",0.0,22.0,95.4,1001.5,284.0,0.5,0.9,278.8,0.00,21.3,23.3,"01:10:08",1
"20/06/13","01:30",0.0,22.0,95.5,1001.5,308.3,0.8,1.2,319.4,0.00,21.3,23.2,"01:25:28",1
"20/06/13","01:40",0.0,22.0,95.5,1001.7,306.5,0.7,1.1,319.6,0.00,21.3,23.1,"01:31:12",1
"20/06/13","01:50",0.0,22.1,95.5,1001.5,287.0,0.8,1.3,310.9,0.00,21.4,23.0,"01:49:36",1
"20/06/13","02:00",0.0,22.1,95.6,1001.9,307.5,1.0,1.4,302.7,0.00,21.4,22.9,"01:52:40",1
"20/06/13","02:10",0.0,22.1,95.6,1001.7,328.4,1.0,1.3,330.1,0.00,21.4,23.1,"02:00:24",1
"20/06/13","02:20",0.0,22.2,95.6,1001.5,290.7,0.7,1.1,273.1,0.00,21.5,23.1,"02:19:52",1
"20/06/13","02:30",0.0,22.1,95.6,1001.5,278.6,1.0,1.1,275.6,0.00,21.4,23.0,"02:26:16",1
"20/06/13","02:40",0.0,22.1,95.6,1000.8,306.3,1.0,1.3,313.9,0.00,21.4,22.9,"02:36:32",1
"20/06/13","02:50",0.0,22.2,95.7,1001.0,293.2,0.8,1.1,285.9,0.00,21.5,23.1,"02:46:16",1
"20/06/13","03:00",0.0,22.2,95.7,1001.2,294.0,0.7,1.1,319.6,0.00,21.5,23.0,"02:50:08",1
"20/06/13","03:10",0.0,22.2,95.7,1000.8,315.9,0.8,1.0,320.7,0.00,21.5,23.0,"03:00:08",1
"20/06/13","03:20",0.0,22.2,95.7,1000.8,285.0,0.8,1.1,276.8,0.00,21.5,22.9,"03:12:32",1
"20/06/13","03:30",0.0,22.2,95.8,1000.5,301.8,0.6,1.0,313.5,0.00,21.5,23.0,"03:29:28",1
"20/06/13","03:40",0.0,22.3,95.8,1000.3,300.7,0.6,1.1,306.7,0.00,21.6,23.0,"03:30:24",1
"20/06/13","03:50",0.0,22.3,95.8,1000.5,309.1,1.1,1.4,335.4,0.00,21.6,23.1,"03:42:48",1
"20/06/13","04:00",0.0,22.3,95.8,1000.5,288.8,0.8,1.0,306.6,0.00,21.6,23.0,"03:54:48",1
"20/06/13","04:10",0.0,22.3,95.8,1000.5,303.1,1.1,1.4,319.6,0.00,21.6,22.9,"04:03:04",1
"20/06/13","04:20",0.0,22.3,95.9,1000.5,294.2,0.8,1.2,319.0,0.00,21.7,22.9,"04:18:48",1
"20/06/13","04:30",0.0,22.3,95.9,1000.5,302.7,0.8,1.2,310.4,0.00,21.7,22.8,"04:20:16",1
"20/06/13","04:40",0.0,22.3,95.9,1000.5,310.3,1.0,1.4,325.9,0.00,21.7,22.8,"04:37:12",1
"20/06/13","04:50",0.0,22.3,95.9,1000.5,310.5,0.8,1.3,332.6,0.00,21.7,22.9,"04:40:40",1
"20/06/13","05:00",0.0,22.4,96.0,1000.8,297.8,0.8,1.3,306.7,0.00,21.8,22.8,"04:58:32",1
"20/06/13","05:10",0.0,22.4,96.0,1000.5,322.1,1.0,1.6,330.8,0.00,21.8,22.9,"05:08:32",1
"20/06/13","05:20",0.0,22.4,96.0,1000.5,316.2,1.1,1.8,318.7,0.00,21.8,22.9,"05:18:56",1
"20/06/13","05:30",0.0,22.4,96.0,1000.5,301.7,1.1,1.7,317.3,0.00,21.8,23.0,"05:26:16",1
"20/06/13","05:40",0.0,22.5,96.0,1000.8,306.3,1.2,2.2,317.7,0.00,21.9,23.0,"05:39:36",1
"20/06/13","05:50",0.0,22.4,96.0,1000.8,263.7,0.7,2.4,319.3,0.00,21.8,22.8,"05:40:08",1
"20/06/13","06:00",0.0,22.5,96.0,1001.0,280.9,0.7,1.1,286.7,0.00,21.9,22.9,"05:54:56",1
"20/06/13","06:10",0.0,22.5,96.0,1000.5,319.1,0.8,1.3,302.5,0.00,21.9,23.0,"06:00:56",1
"20/06/13","06:20",0.0,22.5,96.1,1000.5,322.1,1.2,2.4,329.2,0.00,21.9,23.0,"06:14:08",1
"20/06/13","06:30",0.0,22.6,96.1,1000.3,304.7,1.2,1.8,299.2,0.00,22.0,23.0,"06:27:44",1
"20/06/13","06:40",0.0,22.6,96.0,1000.3,276.6,1.3,1.8,265.7,0.00,22.0,22.9,"06:38:24",1
"20/06/13","06:50",0.0,22.6,96.1,1000.3,272.8,1.0,1.4,261.4,0.00,22.0,22.9,"06:45:20",1
"20/06/13","07:00",0.0,22.6,96.1,1000.5,309.7,1.0,1.4,318.7,0.00,22.0,22.9,"06:54:40",1
"20/06/13","07:10",0.0,22.7,96.1,999.6,257.3,0.6,1.1,284.6,0.00,22.1,22.9,"07:00:16",1
"20/06/13","07:20",0.0,22.7,96.2,1000.0,261.1,0.6,1.2,245.9,0.00,22.1,23.0,"07:19:36",1
"20/06/13","07:30",0.0,22.7,96.1,1000.5,289.5,1.0,1.7,316.5,0.00,22.1,23.1,"07:26:32",1
"20/06/13","07:40",0.0,22.8,96.1,1000.5,274.8,0.6,1.0,319.7,0.00,22.2,22.8,"07:36:16",1
"20/06/13","07:50",0.0,22.8,96.1,1000.8,352.0,0.7,1.3,340.7,0.00,22.2,23.0,"07:46:56",1
"20/06/13","08:00",0.0,22.8,96.2,1000.5,338.8,0.8,1.4,347.5,0.00,22.2,22.9,"07:57:20",1
"20/06/13","08:10",0.0,22.9,96.2,1000.5,306.1,0.7,1.9,316.5,0.02,22.3,22.8,"08:02:00",1
"20/06/13","08:20",0.0,23.0,96.2,1000.5,282.1,0.7,1.3,283.1,0.00,22.4,23.1,"08:18:52",1
"20/06/13","08:30",0.0,23.1,96.1,1000.5,299.3,1.1,2.0,328.0,0.00,22.5,22.9,"08:28:08",1
"20/06/13","08:40",0.0,23.1,96.2,1000.5,353.1,0.7,1.4,311.4,0.00,22.5,23.0,"08:30:32",1
"20/06/13","08:50",0.0,23.2,96.2,1000.3,6.3,0.7,1.6,339.5,0.00,22.6,23.0,"08:42:26",1
"20/06/13","09:00",0.0,23.3,96.2,1000.5,323.2,0.3,0.9,46.5,0.02,22.7,23.0,"08:51:04",1
"20/06/13","09:10",0.0,23.4,96.2,1000.8,31.7,0.5,1.3,352.8,0.02,22.8,23.1,"09:01:42",1
"20/06/13","09:20",0.0,23.5,96.2,1000.3,98.6,0.3,1.1,103.4,0.01,22.9,23.1,"09:19:46",1
"20/06/13","09:30",0.0,23.5,96.2,1000.3,204.2,0.6,1.3,227.8,0.01,22.9,23.1,"09:26:34",1
"20/06/13","09:40",0.0,23.6,96.2,1000.5,325.5,0.3,0.8,51.4,0.01,23.0,23.1,"09:39:44",1
"20/06/13","09:50",0.0,23.7,96.2,1000.3,25.1,0.5,1.2,2.3,0.02,23.1,23.1,"09:45:36",1
"20/06/13","10:00",0.0,23.8,96.1,1000.8,67.9,0.2,0.8,73.1,0.01,23.2,23.1,"09:52:26",1
"20/06/13","10:10",0.0,23.8,96.2,1000.5,98.4,0.6,1.2,122.3,0.00,23.2,23.1,"10:08:48",1
"20/06/13","10:20",0.0,24.0,96.1,1000.8,75.8,0.5,1.1,107.6,0.03,23.4,23.3,"10:10:40",1
"20/06/13","10:30",0.0,24.0,96.1,1001.2,296.4,0.3,1.0,6.6,0.02,23.4,23.2,"10:27:36",1
"20/06/13","10:40",0.0,23.9,96.1,1001.0,320.7,0.5,1.8,136.9,0.02,23.3,23.3,"10:38:26",1
"20/06/13","10:50",0.0,24.0,96.2,1001.0,354.7,0.5,1.2,298.0,0.04,23.4,23.3,"10:40:32",1
"20/06/13","11:00",0.0,24.0,96.2,1001.0,99.5,0.3,1.1,125.5,0.04,23.4,23.3,"10:58:56",1
"20/06/13","11:10",0.0,24.1,96.2,1001.0,136.6,0.5,1.0,134.9,0.05,23.5,23.5,"11:09:52",1
"20/06/13","11:20",0.0,24.1,96.2,1000.8,139.1,0.6,1.2,146.0,0.05,23.5,23.6,"11:17:02",1
"20/06/13","11:30",0.0,24.2,96.2,1001.2,183.6,0.6,1.0,152.1,0.03,23.6,23.7,"11:23:52",1
"20/06/13","11:40",0.0,24.0,96.1,1001.0,222.1,0.7,1.1,158.6,0.02,23.4,23.7,"11:31:52",1
"20/06/13","11:50",0.0,23.8,96.2,1001.0,267.2,0.6,1.2,230.9,0.03,23.2,23.7,"11:43:04",1
"20/06/13","12:00",0.0,23.6,96.3,1001.7,312.5,1.0,1.7,352.1,0.03,23.0,23.7,"11:55:42",1
"20/06/13","12:10",0.0,23.7,96.4,1001.5,262.6,0.5,1.0,283.0,0.07,23.1,24.0,"12:06:58",1
"20/06/13","12:20",0.0,23.7,96.4,1001.2,327.9,0.6,1.1,335.5,0.08,23.1,23.7,"12:10:40",1
"20/06/13","12:30",0.0,23.8,96.4,1001.7,340.7,0.3,1.2,344.4,0.08,23.2,23.8,"12:20:08",1
"20/06/13","12:40",0.0,23.6,96.4,1001.2,326.4,0.7,1.1,326.2,0.03,23.0,23.7,"12:32:16",1
"20/06/13","12:50",0.0,23.8,96.5,1001.2,331.4,0.3,0.9,334.2,0.07,23.2,23.7,"12:46:16",1
"20/06/13","13:00",0.0,23.8,96.4,1001.0,57.4,0.3,1.3,347.4,0.07,23.2,23.7,"12:55:04",1
"20/06/13","13:10",0.0,24.1,96.4,1001.2,19.0,0.3,0.9,347.2,0.12,23.5,23.9,"13:01:44",1
"20/06/13","13:20",0.0,24.0,96.3,1001.2,81.5,0.5,1.1,116.3,0.10,23.4,23.8,"13:16:40",1
"20/06/13","13:30",0.0,24.1,96.3,1000.8,117.5,0.6,1.2,133.8,0.06,23.5,24.0,"13:20:08",1
"20/06/13","13:40",0.0,24.2,96.3,1001.0,349.8,0.3,1.0,354.0,0.05,23.6,24.2,"13:34:40",1
"20/06/13","13:50",0.0,24.2,96.3,1000.8,354.8,0.2,0.8,16.7,0.07,23.6,24.1,"13:40:16",1
"20/06/13","14:00",0.0,24.1,96.2,1000.8,112.9,0.7,1.3,108.7,0.03,23.5,24.1,"13:57:12",1
"20/06/13","14:10",0.0,24.1,96.2,1001.0,129.9,0.3,1.4,122.6,0.02,23.5,24.1,"14:02:24",1
"20/06/13","14:20",0.0,24.1,96.2,1001.0,107.4,0.2,0.8,19.0,0.02,23.5,24.1,"14:12:40",1
"20/06/13","14:30",0.0,24.2,96.2,1001.0,31.3,0.2,0.9,54.6,0.03,23.6,24.2,"14:25:44",1
"20/06/13","14:40",0.0,24.2,96.1,1000.5,49.9,0.2,0.8,59.1,0.02,23.6,24.1,"14:30:56",1
"20/06/13","14:50",0.0,24.1,96.1,1000.5,20.6,0.3,1.0,0.8,0.00,23.5,24.2,"14:41:04",1
"20/06/13","15:00",0.0,24.0,96.1,1001.0,275.1,0.2,0.6,218.7,0.00,23.4,24.2,"14:56:00",1
"20/06/13","15:10",0.0,24.0,96.1,1000.5,201.6,0.2,0.9,173.9,0.00,23.4,24.0,"15:01:20",1
"20/06/13","15:20",0.0,24.0,96.1,1001.0,330.2,1.1,7.0,322.9,0.00,23.4,23.9,"15:19:14",1
"20/06/13","15:30",0.0,23.7,96.2,1000.5,299.9,1.8,4.4,342.6,0.02,23.1,24.2,"15:22:32",1
"20/06/13","15:40",0.0,23.6,96.1,1001.0,285.0,1.3,2.9,325.4,0.01,23.0,24.0,"15:39:20",1
"20/06/13","15:50",0.0,23.1,96.3,1001.2,278.0,0.8,1.9,306.8,0.01,22.5,24.1,"15:41:36",1
"20/06/13","16:00",0.0,23.3,96.3,1001.5,275.1,0.6,1.1,252.9,0.02,22.7,23.9,"15:52:08",1
"20/06/13","16:10",0.0,23.4,96.3,1001.5,294.4,0.3,0.9,319.6,0.03,22.8,23.9,"16:08:00",1
"20/06/13","16:20",0.0,23.5,96.2,1001.2,329.6,0.3,0.9,194.4,0.03,22.9,23.8,"16:17:44",1
"20/06/13","16:30",0.0,23.4,96.2,1001.2,79.7,0.5,1.4,103.3,0.04,22.8,23.9,"16:22:16",1
"20/06/13","16:40",0.0,23.5,96.3,1001.5,295.8,0.6,1.6,321.7,0.02,22.9,23.9,"16:32:32",1
"20/06/13","16:50",0.0,23.4,96.2,1001.0,208.6,0.5,1.1,185.9,0.01,22.8,23.8,"16:48:24",1
"20/06/13","17:00",0.0,23.1,96.1,1001.5,216.2,0.8,1.8,240.5,0.00,22.5,24.2,"16:57:04",1
"20/06/13","17:10",0.0,23.0,96.3,1001.2,244.7,0.3,0.8,217.7,0.02,22.4,23.9,"17:00:08",1
"20/06/13","17:20",0.0,23.0,96.3,1001.5,306.7,1.0,2.0,314.3,0.00,22.4,23.9,"17:10:02",1
"20/06/13","17:30",0.0,22.9,96.3,1001.2,297.5,1.5,2.2,328.4,0.00,22.3,23.7,"17:21:52",1
"20/06/13","17:40",0.0,22.9,96.4,1001.7,293.2,1.5,2.1,316.3,0.00,22.3,23.9,"17:34:48",1
"20/06/13","17:50",0.0,22.9,96.3,1001.2,277.3,1.0,1.7,238.3,0.00,22.3,23.9,"17:44:32",1
"20/06/13","18:00",0.0,22.8,96.4,1001.5,266.3,0.5,0.9,320.5,0.00,22.2,23.7,"17:50:26",1
"20/06/13","18:10",0.0,22.7,96.4,1001.2,262.8,0.3,0.9,254.9,0.00,22.1,23.9,"18:09:44",1
"20/06/13","18:20",0.0,22.8,96.4,1001.5,286.0,0.5,1.3,254.1,0.00,22.2,23.6,"18:13:12",1
"20/06/13","18:30",0.0,22.8,96.4,1001.7,221.7,0.5,1.1,200.6,0.00,22.2,23.7,"18:23:40",1
"20/06/13","18:40",0.0,22.7,96.4,1001.2,259.7,0.2,0.6,246.6,0.00,22.1,23.5,"18:30:40",1
"20/06/13","18:50",0.0,22.7,96.4,1001.5,253.3,0.2,0.5,223.7,0.00,22.1,23.6,"18:43:20",1
"20/06/13","19:00",0.0,22.7,96.4,1001.9,302.0,0.3,1.0,329.9,0.00,22.1,23.5,"18:54:56",1
"20/06/13","19:10",0.0,22.7,96.4,1001.7,251.8,0.5,0.9,310.2,0.00,22.1,23.5,"19:00:56",1
"20/06/13","19:20",0.0,22.7,96.4,1001.9,236.4,0.3,0.8,241.0,0.00,22.1,23.2,"19:14:16",1
"20/06/13","19:30",0.0,22.7,96.4,1001.9,229.8,0.1,0.4,247.0,0.00,22.1,23.7,"19:20:48",1
"20/06/13","19:40",0.0,22.6,96.4,1001.5,265.1,0.0,0.3,328.1,0.00,22.0,23.5,"19:34:48",1
"20/06/13","19:50",0.0,22.7,96.4,1001.9,311.0,0.5,1.0,335.0,0.00,22.1,23.3,"19:49:36",1
"20/06/13","20:00",0.0,22.7,96.4,1001.9,228.5,0.2,0.6,324.2,0.00,22.1,23.5,"19:50:08",1
"20/06/13","20:10",0.0,22.7,96.4,1002.4,279.5,0.3,0.6,312.4,0.00,22.1,23.4,"20:03:12",1
"20/06/13","20:20",0.0,22.6,96.4,1002.2,280.8,0.1,0.4,245.1,0.00,22.0,23.4,"20:10:08",1
"20/06/13","20:30",0.0,22.7,96.5,1002.4,315.2,0.5,1.0,340.3,0.00,22.2,23.3,"20:24:56",1
"20/06/13","20:40",0.0,22.7,96.5,1002.6,262.3,0.6,1.0,302.4,0.00,22.2,23.4,"20:39:44",1
"20/06/13","20:50",0.0,22.7,96.4,1002.6,283.7,0.5,1.0,314.5,0.00,22.1,23.2,"20:40:48",1
"20/06/13","21:00",0.0,22.8,96.4,1002.6,356.6,0.3,0.9,335.6,0.00,22.2,23.2,"20:55:00",1
"20/06/13","21:10",0.0,22.8,96.4,1002.9,263.8,0.3,0.8,336.8,0.00,22.2,23.4,"21:00:30",1
"20/06/13","21:20",0.0,22.8,96.5,1002.9,263.2,0.1,0.4,252.6,0.00,22.3,23.2,"21:10:08",1
"20/06/13","21:30",0.0,22.8,96.5,1002.6,171.8,0.3,0.5,233.7,0.00,22.3,23.1,"21:20:08",1
"20/06/13","21:40",0.0,22.8,96.5,1002.9,121.1,0.1,0.5,341.4,0.00,22.3,23.2,"21:38:56",1
"20/06/13","21:50",0.0,22.9,96.5,1003.1,299.2,0.1,0.5,335.2,0.00,22.4,23.2,"21:40:08",1
"20/06/13","22:00",0.0,22.9,96.5,1003.1,278.9,0.1,0.4,271.7,0.00,22.4,23.3,"21:54:00",1
"20/06/13","22:10",0.0,22.9,96.5,1002.9,273.0,0.0,0.3,273.6,0.00,22.4,23.1,"22:00:40",1
"20/06/13","22:20",0.0,22.9,96.5,1003.1,283.3,0.3,0.6,298.6,0.00,22.4,23.2,"22:19:44",1
"20/06/13","22:30",0.0,22.9,96.5,1003.4,291.0,0.2,0.6,16.5,0.00,22.4,23.2,"22:24:48",1
"20/06/13","22:40",0.0,22.9,96.5,1002.9,231.2,0.1,0.5,254.2,0.00,22.4,23.0,"22:30:32",1
"20/06/13","22:50",0.0,22.9,96.5,1003.1,249.5,0.1,0.3,252.1,0.00,22.4,23.2,"22:40:08",1
"20/06/13","23:00",0.0,22.9,96.5,1002.9,242.7,0.1,0.5,291.7,0.00,22.4,23.1,"22:55:28",1
"20/06/13","23:10",0.0,22.9,96.5,1002.9,285.3,0.1,0.4,248.3,0.00,22.4,23.2,"23:04:00",1
"20/06/13","23:20",0.0,22.9,96.5,1002.9,264.0,0.2,0.5,233.1,0.00,22.4,23.1,"23:11:04",1
"20/06/13","23:30",0.0,23.0,96.5,1003.1,354.0,0.2,0.6,346.8,0.00,22.5,23.2,"23:28:48",1
"20/06/13","23:40",0.0,23.0,96.5,1002.4,351.3,0.2,0.8,11.6,0.00,22.5,23.0,"23:35:36",1
"20/06/13","23:50",0.0,23.0,96.5,1002.6,202.4,0.2,0.6,223.5,0.00,22.5,23.1,"23:42:16",1
"20/06/13","24:00",0.0,22.9,96.5,1002.6,225.5,0.1,0.4,230.4,0.00,22.4,23.1,"23:52:56",1
